Terminal Aerodrome Forecast
Issued by NWS Des Moines, IA

Home | Current Version | Previous Version | Text Only | Print | Product List | Glossary On
Versions: 1 2 3 4 5 6 7 8 9 10 11 12 13 14 15 16 17 18 19 20 21 22 23 24 25 26 27 28 29 30 31 32 33 34 35 36 37 38 39 40 41 42 43 44 45 46 47 48 49 50
000
FTUS43 KDMX 310129 AAA
TAFALO
TAF AMD
KALO 310129Z 3101/3124 17004KT P6SM SCT022
     FM310900 17003KT 3SM BR SCT002 BKN020
     FM311100 16003KT 2SM BR SCT002 BKN015
      TEMPO 3111/3113 1SM BR BKN002
     FM311500 17007KT P6SM SCT020
     FM311800 18010G16KT P6SM SCT030=

USA.gov is the U.S. government's official web portal to all federal, state and local government web resources and services.